This is the latest recevied weather packets stored in our database for station/object W6MAF. If no packets are shown the sender has not sent any weather packets the latest 10 day(s).
| Time | Temp. | Humidity | Pressure | Rain* | Wind** | Luminosity | Snow |
|---|---|---|---|---|---|---|---|
| 1788683431 | 20.56° C | 27% | - | 0 mm | 7.6 m/s, 198° | - | - |
| 1788683110 | 20.56° C | 27% | - | 0 mm | 5.81 m/s, 193° | - | - |
| 1788682813 | 20° C | 27% | - | 0 mm | 7.6 m/s, 204° | - | - |
| 1788682515 | 20° C | 27% | - | 0 mm | 5.36 m/s, 186° | - | - |
| 1788682214 | 19.44° C | 26% | - | 0 mm | 5.36 m/s, 188° | - | - |
| 1788681916 | 19.44° C | 23% | - | 0 mm | 3.58 m/s, 218° | - | - |
| 1788681641 | 19.44° C | 23% | - | 0 mm | 4.47 m/s, 217° | - | - |
| 1788681321 | 20° C | 23% | - | 0 mm | 4.92 m/s, 225° | - | - |
| 1788681023 | 20° C | 23% | - | 0 mm | 4.92 m/s, 207° | - | - |
| 1788680725 | 20° C | 23% | - | 0 mm | 5.81 m/s, 200° | - | - |
| 1788680424 | 20° C | 23% | - | 0 mm | 5.81 m/s, 194° | - | - |
| 1788680127 | 20° C | 23% | - | 0 mm | 5.36 m/s, 205° | - | - |
| 1788679829 | 20° C | 23% | - | 0 mm | 5.81 m/s, 208° | - | - |
| 1788679531 | 20° C | 24% | - | 0 mm | 5.36 m/s, 208° | - | - |
| 1788679234 | 20° C | 24% | - | 0 mm | 4.92 m/s, 203° | - | - |
| 1788678936 | 20° C | 24% | - | 0 mm | 4.92 m/s, 208° | - | - |
| 1788678635 | 20° C | 23% | - | 0 mm | 5.36 m/s, 187° | - | - |
| 1788678337 | 20° C | 23% | - | 0 mm | 4.92 m/s, 204° | - | - |
| 1788678040 | 20° C | 23% | - | 0 mm | 4.92 m/s, 224° | - | - |
| 1788677785 | 20.56° C | 24% | - | 0 mm | 4.92 m/s, 207° | - | - |
| 1788677742 | 20.56° C | 24% | - | 0 mm | 4.92 m/s, 207° | - | - |
| 1788677444 | 20.56° C | 26% | - | 0 mm | 4.47 m/s, 214° | - | - |
| 1788677146 | 20.56° C | 26% | - | 0 mm | 5.36 m/s, 198° | - | - |
| 1788676846 | 20.56° C | 26% | - | 0 mm | 4.02 m/s, 198° | - | - |
| 1788676548 | 20.56° C | 26% | - | 0 mm | 4.02 m/s, 176° | - | - |
* Rain latest hour (hover to see other rain measurements)
** Current wind speed in m/s (hover to see current wind gust speed)